This is the latest recevied weather packets stored in our database for station/object YO6KXQ-10. If no packets are shown the sender has not sent any weather packets the latest 10 day(s).
| Time | Temp. | Humidity | Pressure | Rain* | Wind** | Luminosity | Snow |
|---|---|---|---|---|---|---|---|
| 1777755530 | 16.67° C | 53% | 1026.1 hPa | - | - | - | - |
| 1777754510 | 16.67° C | 53% | 1026 hPa | - | - | - | - |
| 1777753489 | 17.22° C | 52% | 1026.1 hPa | - | - | - | - |
| 1777751449 | 17.22° C | 52% | 1025.9 hPa | - | - | - | - |
| 1777749409 | 17.22° C | 53% | 1026.1 hPa | - | - | - | - |
| 1777746348 | 16.11° C | 54% | 1025.8 hPa | - | - | - | - |
| 1777742268 | 16.11° C | 54% | 1025.5 hPa | - | - | - | - |
| 1777741247 | 16.11° C | 54% | 1025.5 hPa | - | - | - | - |
| 1777739207 | 16.67° C | 54% | 1025.4 hPa | - | - | - | - |
| 1777738187 | 16.67° C | 53% | 1025.3 hPa | - | - | - | - |
| 1777736147 | 16.67° C | 53% | 1025.5 hPa | - | - | - | - |
| 1777735127 | 16.67° C | 53% | 1025.4 hPa | - | - | - | - |
| 1777734106 | 17.22° C | 53% | 1025.7 hPa | - | - | - | - |
| 1777733086 | 17.22° C | 52% | 1025.8 hPa | - | - | - | - |
| 1777732064 | 17.22° C | 52% | 1025.7 hPa | - | - | - | - |
| 1777731044 | 17.22° C | 53% | 1025.7 hPa | - | - | - | - |
| 1777730023 | 17.22° C | 53% | 1025.8 hPa | - | - | - | - |
| 1777729003 | 17.22° C | 53% | 1025.8 hPa | - | - | - | - |
| 1777727983 | 17.22° C | 53% | 1026 hPa | - | - | - | - |
| 1777725943 | 16.67° C | 53% | 1025.9 hPa | - | - | - | - |
| 1777724922 | 16.67° C | 53% | 1026.1 hPa | - | - | - | - |
| 1777723902 | 16.11° C | 53% | 1025.9 hPa | - | - | - | - |
| 1777721862 | 16.11° C | 53% | 1026.1 hPa | - | - | - | - |
| 1777720841 | 16.11° C | 53% | 1025.6 hPa | - | - | - | - |
| 1777719821 | 16.11° C | 53% | 1025.6 hPa | - | - | - | - |
* Rain since midnight (hover to see other rain measurements)
** Current wind speed in m/s (hover to see current wind gust speed)